Total_Precipitation_Accumulation
0.00 0.00 0.00 0.00 0.00 0.00 0.00 0.00 0.00 0.00 0.00 0.00 0.00 0.01 0.03 0.05 0.06 0.05 0.06 0.09 0.16 0.28 0.43 0.64 0.93 1.27 1.64 2.28 2.95 3.16 2.76 2.33 1.93 1.64 1.39 1.15 0.95 0.89 0.84 0.70 0.66 0.66 0.67 0.68
0.00 0.00 0.00 0.00 0.00 0.00 0.00 0.00 0.00 0.00 0.00 0.00 0.00 0.00 0.01 0.02 0.03 0.04 0.07 0.13 0.23 0.41 0.64 0.93 1.32 1.56 1.81 2.23 2.68 2.67 2.22 1.77 1.30 1.01 0.92 0.81 0.69 0.60 0.50 0.47 0.50 0.47 0.53 0.59
0.00 0.01 0.00 0.00 0.00 0.00 0.00 0.00 0.00 0.00 0.00 0.00 0.00 0.01 0.01 0.02 0.02 0.04 0.06 0.10 0.17 0.35 0.68 1.14 1.64 1.92 2.03 2.04 1.94 1.78 1.35 0.87 0.64 0.49 0.47 0.42 0.40 0.40 0.32 0.28 0.31 0.31 0.34 0.37
0.00 0.00 0.00 0.00 0.00 0.00 0.00 0.00 0.00 0.00 0.00 0.00 0.01 0.03 0.05 0.06 0.05 0.07 0.08 0.11 0.17 0.33 0.70 1.24 1.58 1.63 1.63 1.51 1.17 0.88 0.68 0.44 0.31 0.29 0.32 0.32 0.29 0.30 0.25 0.23 0.24 0.23 0.24 0.26
0.01 0.00 0.00 0.00 0.00 0.00 0.00 0.00 0.00 0.00 0.00 0.00 0.01 0.03 0.07 0.10 0.10 0.09 0.11 0.13 0.21 0.32 0.52 0.76 0.86 0.93 0.94 0.83 0.67 0.53 0.45 0.34 0.34 0.34 0.37 0.38 0.28 0.23 0.21 0.20 0.20 0.20 0.23 0.26
0.02 0.01 0.01 0.00 0.00 0.01 0.01 0.01 0.01 0.01 0.03 0.07 0.06 0.07 0.17 0.23 0.16 0.10 0.10 0.11 0.15 0.22 0.36 0.48 0.47 0.44 0.42 0.34 0.35 0.36 0.40 0.44 0.41 0.34 0.31 0.31 0.27 0.22 0.20 0.17 0.18 0.19 0.22 0.26
0.04 0.03 0.02 0.02 0.02 0.02 0.02 0.01 0.01 0.02 0.10 0.18 0.11 0.08 0.20 0.29 0.21 0.11 0.07 0.10 0.16 0.27 0.35 0.39 0.43 0.41 0.32 0.24 0.25 0.24 0.22 0.25 0.29 0.27 0.26 0.26 0.26 0.24 0.22 0.20 0.16 0.17 0.19 0.23
0.06 0.05 0.04 0.03 0.02 0.03 0.03 0.02 0.02 0.01 0.02 0.03 0.04 0.13 0.24 0.23 0.17 0.11 0.07 0.08 0.14 0.21 0.25 0.25 0.26 0.24 0.19 0.14 0.10 0.09 0.10 0.11 0.12 0.13 0.16 0.18 0.22 0.20 0.20 0.23 0.19 0.17 0.20 0.24
0.01 0.01 0.01 0.01 0.02 0.03 0.03 0.03 0.03 0.02 0.01 0.02 0.07 0.16 0.18 0.19 0.15 0.08 0.05 0.04 0.07 0.09 0.09 0.09 0.08 0.07 0.06 0.05 0.04 0.04 0.05 0.05 0.05 0.06 0.09 0.12 0.16 0.18 0.18 0.20 0.19 0.19 0.24 0.26
0.00 0.00 0.00 0.00 0.01 0.02 0.03 0.03 0.02 0.02 0.02 0.01 0.05 0.22 0.32 0.23 0.17 0.07 0.03 0.03 0.03 0.03 0.03 0.03 0.03 0.03 0.02 0.02 0.02 0.02 0.02 0.03 0.03 0.04 0.05 0.07 0.09 0.13 0.15 0.14 0.17 0.21 0.21 0.21
0.00 0.00 0.00 0.00 0.01 0.01 0.01 0.01 0.02 0.02 0.02 0.02 0.03 0.13 0.15 0.10 0.05 0.02 0.01 0.01 0.01 0.01 0.01 0.01 0.01 0.01 0.01 0.01 0.01 0.01 0.02 0.02 0.02 0.02 0.03 0.04 0.06 0.08 0.10 0.13 0.16 0.18 0.18 0.20
0.00 0.00 0.00 0.00 0.01 0.01 0.01 0.01 0.01 0.01 0.02 0.02 0.03 0.08 0.06 0.05 0.02 0.01 0.01 0.00 0.00 0.00 0.00 0.00 0.00 0.00 0.00 0.01 0.01 0.01 0.02 0.02 0.02 0.02 0.02 0.03 0.04 0.06 0.07 0.09 0.12 0.16 0.18 0.17
0.00 0.00 0.00 0.01 0.01 0.01 0.01 0.01 0.02 0.01 0.01 0.02 0.08 0.14 0.05 0.02 0.01 0.00 0.00 0.00 0.00 0.00 0.00 0.00 0.00 0.00 0.00 0.01 0.01 0.01 0.01 0.01 0.01 0.01 0.02 0.02 0.02 0.03 0.05 0.06 0.09 0.13 0.15 0.16
0.00 0.00 0.00 0.00 0.00 0.00 0.01 0.02 0.02 0.02 0.02 0.02 0.06 0.12 0.04 0.01 0.00 0.00 0.00 0.00 0.00 0.00 0.00 0.00 0.00 0.00 0.00 0.00 0.00 0.00 0.00 0.00 0.00 0.00 0.01 0.01 0.01 0.02 0.04 0.05 0.08 0.11 0.13 0.15
0.00 0.00 0.00 0.00 0.00 0.00 0.02 0.03 0.03 0.02 0.01 0.04 0.03 0.03 0.02 0.00 0.00 0.00 0.00 0.00 0.00 0.00 0.00 0.00 0.00 0.00 0.00 0.00 0.00 0.00 0.01 0.01 0.01 0.02 0.04 0.03 0.03 0.03 0.03 0.05 0.07 0.08 0.09 0.10
0.00 0.00 0.00 0.00 0.00 0.01 0.02 0.04 0.02 0.00 0.00 0.00 0.00 0.00 0.00 0.00 0.01 0.01 0.01 0.02 0.01 0.01 0.02 0.02 0.02 0.02 0.03 0.02 0.03 0.03 0.03 0.04 0.05 0.07 0.09 0.07 0.08 0.08 0.07 0.08 0.09 0.09 0.10 0.12
0.00 0.00 0.00 0.00 0.00 0.01 0.04 0.03 0.01 0.00 0.00 0.00 0.00 0.01 0.01 0.02 0.03 0.05 0.07 0.08 0.08 0.08 0.08 0.07 0.07 0.05 0.04 0.03 0.02 0.02 0.02 0.03 0.04 0.06 0.11 0.11 0.12 0.11 0.09 0.08 0.09 0.10 0.13 0.16
0.00 0.00 0.00 0.00 0.00 0.03 0.04 0.00 0.00 0.00 0.00 0.01 0.03 0.05 0.08 0.12 0.14 0.17 0.22 0.22 0.16 0.10 0.07 0.04 0.03 0.01 0.01 0.00 0.01 0.01 0.02 0.02 0.03 0.04 0.10 0.15 0.17 0.15 0.13 0.14 0.15 0.16 0.18 0.20
0.00 0.00 0.00 0.00 0.00 0.02 0.01 0.00 0.00 0.01 0.03 0.05 0.10 0.17 0.22 0.26 0.26 0.21 0.16 0.12 0.08 0.04 0.02 0.01 0.01 0.01 0.01 0.01 0.01 0.02 0.03 0.04 0.05 0.07 0.11 0.16 0.23 0.24 0.22 0.23 0.25 0.27 0.28 0.27
0.00 0.00 0.00 0.00 0.00 0.01 0.01 0.01 0.05 0.06 0.13 0.18 0.21 0.21 0.16 0.12 0.11 0.08 0.03 0.01 0.01 0.01 0.00 0.01 0.01 0.01 0.02 0.02 0.03 0.04 0.06 0.08 0.10 0.11 0.15 0.21 0.28 0.32 0.31 0.31 0.34 0.35 0.37 0.35
0.00 0.00 0.00 0.00 0.00 0.01 0.02 0.05 0.10 0.17 0.22 0.18 0.13 0.10 0.08 0.07 0.06 0.03 0.01 0.01 0.01 0.00 0.00 0.01 0.01 0.02 0.05 0.07 0.11 0.15 0.17 0.19 0.19 0.21 0.23 0.27 0.33 0.38 0.37 0.37 0.38 0.40 0.41 0.41
0.00 0.00 0.00 0.00 0.02 0.06 0.05 0.06 0.10 0.10 0.08 0.06 0.05 0.04 0.03 0.02 0.01 0.01 0.00 0.01 0.01 0.00 0.00 0.01 0.02 0.03 0.05 0.09 0.16 0.23 0.24 0.24 0.26 0.30 0.31 0.34 0.39 0.40 0.39 0.47 0.51 0.55 0.55 0.52
0.00 0.00 0.01 0.01 0.04 0.03 0.02 0.02 0.03 0.03 0.03 0.03 0.02 0.02 0.01 0.01 0.00 0.00 0.00 0.00 0.00 0.00 0.00 0.01 0.02 0.03 0.05 0.08 0.14 0.20 0.22 0.23 0.26 0.29 0.31 0.36 0.44 0.48 0.49 0.53 0.56 0.64 0.67 0.65
0.00 0.00 0.01 0.04 0.04 0.04 0.02 0.01 0.01 0.01 0.01 0.01 0.00 0.00 0.00 0.00 0.00 0.00 0.00 0.00 0.00 0.00 0.00 0.01 0.03 0.06 0.07 0.08 0.11 0.15 0.22 0.29 0.33 0.34 0.35 0.38 0.43 0.49 0.57 0.64 0.63 0.65 0.69 0.71
0.00 0.00 0.00 0.02 0.03 0.03 0.01 0.00 0.00 0.00 0.00 0.00 0.00 0.00 0.00 0.00 0.00 0.00 0.00 0.00 0.00 0.01 0.02 0.04 0.07 0.10 0.10 0.09 0.10 0.12 0.19 0.31 0.38 0.38 0.37 0.40 0.44 0.49 0.59 0.69 0.70 0.65 0.67 0.72
0.00 0.00 0.00 0.00 0.00 0.00 0.00 0.00 0.00 0.00 0.00 0.00 0.00 0.00 0.00 0.00 0.00 0.00 0.00 0.00 0.01 0.02 0.06 0.10 0.12 0.13 0.13 0.13 0.13 0.14 0.20 0.32 0.41 0.41 0.38 0.41 0.44 0.49 0.56 0.65 0.69 0.59 0.51 0.52